Powrót do katalogu

IRIDIUM 33 DEB

AktywnyPO
NORAD 34651·DEBRIS·🇺🇸 United States

Wystrzelony Sep 14, 1997 z Baikonur Cosmodrome

Loading…

Następne Przeloty (najbliższe 24 godziny)

TLE

ŚwieżeSource: Space-Track

Epoka: Sep 14, 2026, 02:26 UTC

1 34651U 97051KC  26257.10203931  .00002953  00000-0  10525-2 0  9996
2 34651  86.2834  22.9225 0131093  37.3672 323.6548 14.29228692898257

Śledź IRIDIUM 33 DEB w czasie rzeczywistym z AllMySat

Download on the App Store